STARLINK-32110

decayed
NORAD ID: 60078 Int'l Des: 2024-113 Owner: SPXS Country: US Constellation: starlink
LEOCIRCULAR
Group

About STARLINK-32110

Description loading...

Altitude History

Altitude vs Time

uPlot chart will show altitude changes over time

Two-Line Element Set

1 60078U 24113V 24193.71301079 .09110817 12599-4 30165-3 0 9994
2 60078 53.1511 295.3743 0012052 316.7184 160.3154 16.43601315 4422
Epoch: Jul 11, 2024 • Age: 10353 hours

Current Status

Position data unavailable
Launch Date Jun 19, 2024
Age 1.2 years
Decay Date Jul 12, 2024
Type internet

Technical Details

Classification Payload
Mass 730.00 kg
Dry Mass 700.00 kg
Total Mass 730.00 kg
Length 0.30 m
Diameter 4.10 m
Span 29.00 m
Shape Box + pan
Manufacturer SPXS
Bus Type Starlink V2M
Phase Status Reentered
Owner/State SPXS/US

Large Constellations

Loading constellations...